Time,TemperatureF,DewpointF,PressureIn,WindDirection,WindDirectionDegrees,WindSpeedMPH,WindSpeedGustMPH,Humidity,HourlyPrecipIn,Conditions,Clouds,dailyrainin,SolarRadiationWatts/m^2,SoftwareType,DateUTC
2013-01-08 00:02:00,44.0,37.0,-100.00,NE,49,4.0,6.0,75,0.00,,,0.00,0.000000,,2013-01-08 06:02:00,
2013-01-08 00:12:00,44.0,37.0,-100.00,NE,49,4.0,6.0,75,0.00,,,0.00,0.000000,,2013-01-08 06:12:00,
2013-01-08 00:22:00,44.0,37.0,-100.00,NE,49,4.0,6.0,75,0.00,,,0.00,0.000000,,2013-01-08 06:22:00,
2013-01-08 00:32:00,44.0,36.0,-100.00,ENE,57,3.0,6.0,74,0.00,,,0.00,0.000000,,2013-01-08 06:32:00,
2013-01-08 00:53:00,44.0,36.0,-100.00,ENE,57,3.0,6.0,74,0.00,,,0.00,0.000000,,2013-01-08 06:53:00,
2013-01-08 01:02:00,44.0,36.0,-100.00,ENE,57,3.0,6.0,74,0.00,,,0.00,0.000000,,2013-01-08 07:02:00,
2013-01-08 01:12:00,44.0,36.0,-100.00,ENE,57,3.0,6.0,74,0.00,,,0.00,0.000000,,2013-01-08 07:12:00,
2013-01-08 01:22:00,44.0,36.0,-100.00,ENE,57,3.0,6.0,74,0.00,,,0.00,0.000000,,2013-01-08 07:22:00,
2013-01-08 01:32:00,43.0,37.0,-100.00,ENE,58,3.0,5.0,78,0.00,,,0.00,0.000000,,2013-01-08 07:32:00,
2013-01-08 01:52:00,43.0,37.0,-100.00,ENE,58,3.0,5.0,78,0.00,,,0.00,0.000000,,2013-01-08 07:52:00,
2013-01-08 02:02:00,43.0,37.0,-100.00,ENE,58,3.0,5.0,78,0.00,,,0.00,0.000000,,2013-01-08 08:02:00,
2013-01-08 02:12:00,43.0,37.0,-100.00,ENE,58,3.0,5.0,78,0.00,,,0.00,0.000000,,2013-01-08 08:12:00,
2013-01-08 02:22:00,43.0,37.0,-100.00,ENE,58,3.0,5.0,78,0.00,,,0.00,0.000000,,2013-01-08 08:22:00,
2013-01-08 02:32:00,42.0,37.0,-100.00,NNE,31,2.0,7.0,82,0.00,,,0.00,0.000000,,2013-01-08 08:32:00,
2013-01-08 02:53:00,42.0,37.0,-100.00,NNE,31,2.0,7.0,82,0.00,,,0.00,0.000000,,2013-01-08 08:53:00,
2013-01-08 03:02:00,42.0,37.0,-100.00,NNE,31,2.0,7.0,82,0.00,,,0.00,0.000000,,2013-01-08 09:02:00,
2013-01-08 03:12:00,42.0,37.0,-100.00,NNE,31,2.0,7.0,82,0.00,,,0.00,0.000000,,2013-01-08 09:12:00,
2013-01-08 03:22:00,42.0,37.0,-100.00,NNE,31,2.0,7.0,82,0.00,,,0.00,0.000000,,2013-01-08 09:22:00,
2013-01-08 03:32:00,44.0,38.0,-100.00,NE,51,3.0,5.0,79,0.00,,,0.00,0.000000,,2013-01-08 09:32:00,
2013-01-08 03:52:00,44.0,38.0,-100.00,NE,51,3.0,5.0,79,0.00,,,0.00,0.000000,,2013-01-08 09:52:00,
2013-01-08 04:02:00,44.0,38.0,-100.00,NE,51,3.0,5.0,79,0.00,,,0.00,0.000000,,2013-01-08 10:02:00,
2013-01-08 04:12:00,44.0,38.0,-100.00,NE,51,3.0,5.0,79,0.00,,,0.00,0.000000,,2013-01-08 10:12:00,
2013-01-08 04:22:00,44.0,38.0,-100.00,NE,51,3.0,5.0,79,0.00,,,0.00,0.000000,,2013-01-08 10:22:00,
2013-01-08 04:32:00,44.0,37.0,-100.00,ENE,64,4.0,6.0,76,0.00,,,0.00,0.000000,,2013-01-08 10:32:00,
2013-01-08 04:52:00,44.0,37.0,-100.00,ENE,64,4.0,6.0,76,0.00,,,0.00,0.000000,,2013-01-08 10:52:00,
2013-01-08 05:02:00,44.0,37.0,-100.00,ENE,64,4.0,6.0,76,0.00,,,0.00,0.000000,,2013-01-08 11:02:00,
2013-01-08 05:12:00,44.0,37.0,-100.00,ENE,64,4.0,6.0,76,0.00,,,0.00,0.000000,,2013-01-08 11:12:00,
2013-01-08 05:22:00,44.0,37.0,-100.00,ENE,64,4.0,6.0,76,0.00,,,0.00,0.000000,,2013-01-08 11:22:00,
2013-01-08 05:32:00,44.0,37.0,-100.00,ENE,62,4.0,6.0,77,0.00,,,0.00,0.000000,,2013-01-08 11:32:00,
2013-01-08 05:53:00,44.0,37.0,-100.00,ENE,62,4.0,6.0,77,0.00,,,0.00,0.000000,,2013-01-08 11:53:00,
2013-01-08 06:03:00,44.0,37.0,-100.00,ENE,62,4.0,6.0,77,0.00,,,0.00,0.000000,,2013-01-08 12:03:00,
2013-01-08 06:12:00,44.0,37.0,-100.00,ENE,62,4.0,6.0,77,0.00,,,0.00,0.000000,,2013-01-08 12:12:00,
2013-01-08 06:22:00,44.0,37.0,-100.00,ENE,62,4.0,6.0,77,0.00,,,0.00,0.000000,,2013-01-08 12:22:00,
2013-01-08 06:32:00,45.0,37.0,-100.00,NE,53,4.0,7.0,73,0.00,,,0.00,0.000000,,2013-01-08 12:32:00,
2013-01-08 06:53:00,45.0,37.0,-100.00,NE,53,4.0,7.0,73,0.00,,,0.00,0.000000,,2013-01-08 12:53:00,
2013-01-08 07:03:00,45.0,37.0,-100.00,NE,53,4.0,7.0,73,0.00,,,0.00,0.000000,,2013-01-08 13:03:00,
2013-01-08 07:12:00,45.0,37.0,-100.00,NE,53,4.0,7.0,73,0.00,,,0.00,0.000000,,2013-01-08 13:12:00,
2013-01-08 07:22:00,45.0,37.0,-100.00,NE,53,4.0,7.0,73,0.00,,,0.00,0.000000,,2013-01-08 13:22:00,
2013-01-08 07:32:00,46.0,37.0,-100.00,East,85,4.0,8.0,70,0.00,,,0.00,2.000000,,2013-01-08 13:32:00,
2013-01-08 07:53:00,46.0,37.0,-100.00,East,85,4.0,8.0,70,0.00,,,0.00,2.000000,,2013-01-08 13:53:00,
2013-01-08 08:02:00,46.0,37.0,-100.00,East,85,4.0,8.0,70,0.00,,,0.00,2.000000,,2013-01-08 14:02:00,
2013-01-08 08:12:00,46.0,37.0,-100.00,East,85,4.0,8.0,70,0.00,,,0.00,2.000000,,2013-01-08 14:12:00,
2013-01-08 08:23:00,46.0,37.0,-100.00,East,85,4.0,8.0,70,0.00,,,0.00,2.000000,,2013-01-08 14:23:00,
2013-01-08 08:32:00,48.0,38.0,-100.00,East,85,4.0,9.0,67,0.00,,,0.00,58.000000,,2013-01-08 14:32:00,
2013-01-08 08:53:00,48.0,38.0,-100.00,East,85,4.0,9.0,67,0.00,,,0.00,58.000000,,2013-01-08 14:53:00,
2013-01-08 09:03:00,48.0,38.0,-100.00,East,85,4.0,9.0,67,0.00,,,0.00,58.000000,,2013-01-08 15:03:00,
2013-01-08 09:12:00,48.0,38.0,-100.00,East,85,4.0,9.0,67,0.00,,,0.00,58.000000,,2013-01-08 15:12:00,
2013-01-08 09:22:00,48.0,38.0,-100.00,East,85,4.0,9.0,67,0.00,,,0.00,58.000000,,2013-01-08 15:22:00,
2013-01-08 09:32:00,51.0,40.0,-100.00,East,90,6.0,9.0,66,0.00,,,0.00,91.000000,,2013-01-08 15:32:00,
2013-01-08 09:53:00,51.0,40.0,-100.00,East,90,6.0,9.0,66,0.00,,,0.00,91.000000,,2013-01-08 15:53:00,
2013-01-08 10:03:00,51.0,40.0,-100.00,East,90,6.0,9.0,66,0.00,,,0.00,91.000000,,2013-01-08 16:03:00,
2013-01-08 10:12:00,51.0,40.0,-100.00,East,90,6.0,9.0,66,0.00,,,0.00,91.000000,,2013-01-08 16:12:00,
2013-01-08 10:22:00,51.0,40.0,-100.00,East,90,6.0,9.0,66,0.00,,,0.00,91.000000,,2013-01-08 16:22:00,
2013-01-08 10:32:00,50.0,45.0,-100.00,ENE,70,2.0,9.0,82,0.01,,,-99.99,72.000000,,2013-01-08 16:32:00,
2013-01-08 10:53:00,50.0,45.0,-100.00,ENE,70,2.0,9.0,82,0.01,,,-99.99,72.000000,,2013-01-08 16:53:00,
2013-01-08 11:03:00,50.0,45.0,-100.00,ENE,70,2.0,9.0,82,0.01,,,-99.99,72.000000,,2013-01-08 17:03:00,
2013-01-08 11:13:00,50.0,45.0,-100.00,ENE,70,2.0,9.0,82,0.01,,,-99.99,72.000000,,2013-01-08 17:13:00,
2013-01-08 11:23:00,50.0,45.0,-100.00,ENE,70,2.0,9.0,82,0.01,,,-99.99,72.000000,,2013-01-08 17:23:00,
2013-01-08 11:32:00,50.0,46.0,-100.00,North,349,2.0,5.0,87,0.02,,,0.03,85.000000,,2013-01-08 17:32:00,
2013-01-08 11:54:00,50.0,46.0,-100.00,North,349,2.0,5.0,87,0.02,,,0.03,85.000000,,2013-01-08 17:54:00,
2013-01-08 12:03:00,50.0,46.0,-100.00,North,349,2.0,5.0,87,0.02,,,0.03,85.000000,,2013-01-08 18:03:00,
2013-01-08 12:13:00,50.0,46.0,-100.00,North,349,2.0,5.0,87,0.02,,,0.03,85.000000,,2013-01-08 18:13:00,
2013-01-08 12:23:00,50.0,46.0,-100.00,North,349,2.0,5.0,87,0.02,,,0.03,85.000000,,2013-01-08 18:23:00,
2013-01-08 12:32:00,51.0,48.0,-100.00,SW,223,2.0,4.0,89,0.04,,,0.07,59.000000,,2013-01-08 18:32:00,
2013-01-08 12:53:00,51.0,48.0,-100.00,SW,223,2.0,4.0,89,0.04,,,0.07,59.000000,,2013-01-08 18:53:00,
2013-01-08 13:03:00,51.0,48.0,-100.00,SW,223,2.0,4.0,89,0.04,,,0.07,59.000000,,2013-01-08 19:03:00,
2013-01-08 13:12:00,51.0,48.0,-100.00,SW,223,2.0,4.0,89,0.04,,,0.07,59.000000,,2013-01-08 19:12:00,
2013-01-08 13:22:00,51.0,48.0,-100.00,SW,223,2.0,4.0,89,0.04,,,0.07,59.000000,,2013-01-08 19:22:00,
2013-01-08 13:32:00,53.0,50.0,-100.00,East,87,5.0,7.0,91,0.16,,,-99.99,79.000000,,2013-01-08 19:32:00,
2013-01-08 13:53:00,53.0,50.0,-100.00,East,87,5.0,7.0,91,0.16,,,-99.99,79.000000,,2013-01-08 19:53:00,
2013-01-08 14:03:00,53.0,50.0,-100.00,East,87,5.0,7.0,91,0.16,,,-99.99,79.000000,,2013-01-08 20:03:00,
2013-01-08 14:12:00,53.0,50.0,-100.00,East,87,5.0,7.0,91,0.16,,,-99.99,79.000000,,2013-01-08 20:12:00,
2013-01-08 14:23:00,53.0,50.0,-100.00,East,87,5.0,7.0,91,0.16,,,-99.99,79.000000,,2013-01-08 20:23:00,
2013-01-08 14:32:00,55.0,52.0,-100.00,East,87,6.0,10.0,89,0.01,,,0.24,145.000000,,2013-01-08 20:32:00,
2013-01-08 14:54:00,55.0,52.0,-100.00,East,87,6.0,10.0,89,0.01,,,0.24,145.000000,,2013-01-08 20:54:00,
2013-01-08 15:03:00,55.0,52.0,-100.00,East,87,6.0,10.0,89,0.01,,,0.24,145.000000,,2013-01-08 21:03:00,
2013-01-08 15:13:00,55.0,52.0,-100.00,East,87,6.0,10.0,89,0.01,,,0.24,145.000000,,2013-01-08 21:13:00,
2013-01-08 15:23:00,55.0,52.0,-100.00,East,87,6.0,10.0,89,0.01,,,0.24,145.000000,,2013-01-08 21:23:00,
2013-01-08 15:32:00,56.0,53.0,-100.00,East,83,6.0,10.0,89,0.00,,,0.24,97.000000,,2013-01-08 21:32:00,
2013-01-08 15:53:00,56.0,53.0,-100.00,East,83,6.0,10.0,89,0.00,,,0.24,97.000000,,2013-01-08 21:53:00,
2013-01-08 16:03:00,56.0,53.0,-100.00,East,83,6.0,10.0,89,0.00,,,0.24,97.000000,,2013-01-08 22:03:00,
2013-01-08 16:12:00,56.0,53.0,-100.00,East,83,6.0,10.0,89,0.00,,,0.24,97.000000,,2013-01-08 22:12:00,
2013-01-08 16:23:00,56.0,53.0,-100.00,East,83,6.0,10.0,89,0.00,,,0.24,97.000000,,2013-01-08 22:23:00,
2013-01-08 16:32:00,56.0,52.0,-100.00,East,87,5.0,9.0,88,0.00,,,0.24,37.000000,,2013-01-08 22:32:00,
2013-01-08 16:53:00,56.0,52.0,-100.00,East,87,5.0,9.0,88,0.00,,,0.24,37.000000,,2013-01-08 22:53:00,
2013-01-08 17:02:00,56.0,52.0,-100.00,East,87,5.0,9.0,88,0.00,,,0.24,37.000000,,2013-01-08 23:02:00,
2013-01-08 17:12:00,56.0,52.0,-100.00,East,87,5.0,9.0,88,0.00,,,0.24,37.000000,,2013-01-08 23:12:00,
2013-01-08 17:22:00,56.0,52.0,-100.00,East,87,5.0,9.0,88,0.00,,,0.24,37.000000,,2013-01-08 23:22:00,
2013-01-08 17:32:00,56.0,53.0,-100.00,ENE,64,4.0,9.0,90,0.00,,,0.24,4.000000,,2013-01-08 23:32:00,
2013-01-08 17:53:00,56.0,53.0,-100.00,ENE,64,4.0,9.0,90,0.00,,,0.24,4.000000,,2013-01-08 23:53:00,
2013-01-08 18:03:00,56.0,53.0,-100.00,ENE,64,4.0,9.0,90,0.00,,,0.24,4.000000,,2013-01-09 00:03:00,
2013-01-08 18:12:00,56.0,53.0,-100.00,ENE,64,4.0,9.0,90,0.00,,,0.24,4.000000,,2013-01-09 00:12:00,
2013-01-08 18:22:00,56.0,53.0,-100.00,ENE,64,4.0,9.0,90,0.00,,,0.24,4.000000,,2013-01-09 00:22:00,
2013-01-08 18:32:00,57.0,54.0,-100.00,NE,54,3.0,7.0,91,0.00,,,-99.99,0.000000,,2013-01-09 00:32:00,
2013-01-08 18:53:00,57.0,54.0,-100.00,NE,54,3.0,7.0,91,0.00,,,-99.99,0.000000,,2013-01-09 00:53:00,
2013-01-08 19:02:00,57.0,54.0,-100.00,NE,54,3.0,7.0,91,0.00,,,-99.99,0.000000,,2013-01-09 01:02:00,
2013-01-08 19:12:00,57.0,54.0,-100.00,NE,54,3.0,7.0,91,0.00,,,-99.99,0.000000,,2013-01-09 01:12:00,
2013-01-08 19:22:00,57.0,54.0,-100.00,NE,54,3.0,7.0,91,0.00,,,-99.99,0.000000,,2013-01-09 01:22:00,
2013-01-08 19:32:00,57.0,55.0,-100.00,East,87,4.0,6.0,92,0.00,,,0.24,0.000000,,2013-01-09 01:32:00,
2013-01-08 19:52:00,57.0,55.0,-100.00,East,87,4.0,6.0,92,0.00,,,0.24,0.000000,,2013-01-09 01:52:00,
2013-01-08 20:02:00,57.0,55.0,-100.00,East,87,4.0,6.0,92,0.00,,,0.24,0.000000,,2013-01-09 02:02:00,
2013-01-08 20:12:00,57.0,55.0,-100.00,East,87,4.0,6.0,92,0.00,,,0.24,0.000000,,2013-01-09 02:12:00,
2013-01-08 20:22:00,57.0,55.0,-100.00,East,87,4.0,6.0,92,0.00,,,0.24,0.000000,,2013-01-09 02:22:00,
2013-01-08 20:32:00,58.0,56.0,-100.00,ESE,102,4.0,8.0,92,0.01,,,0.25,0.000000,,2013-01-09 02:32:00,
2013-01-08 20:53:00,58.0,56.0,-100.00,ESE,102,4.0,8.0,92,0.01,,,0.25,0.000000,,2013-01-09 02:53:00,
2013-01-08 21:03:00,58.0,56.0,-100.00,ESE,102,4.0,8.0,92,0.01,,,0.25,0.000000,,2013-01-09 03:03:00,
2013-01-08 21:12:00,58.0,56.0,-100.00,ESE,102,4.0,8.0,92,0.01,,,0.25,0.000000,,2013-01-09 03:12:00,
2013-01-08 21:22:00,58.0,56.0,-100.00,ESE,102,4.0,8.0,92,0.01,,,0.25,0.000000,,2013-01-09 03:22:00,
2013-01-08 21:32:00,60.0,58.0,-100.00,ESE,109,4.0,10.0,92,0.00,,,0.25,0.000000,,2013-01-09 03:32:00,
2013-01-08 21:53:00,60.0,58.0,-100.00,ESE,109,4.0,10.0,92,0.00,,,0.25,0.000000,,2013-01-09 03:53:00,
2013-01-08 22:02:00,60.0,58.0,-100.00,ESE,109,4.0,10.0,92,0.00,,,0.25,0.000000,,2013-01-09 04:02:00,
2013-01-08 22:12:00,60.0,58.0,-100.00,ESE,109,4.0,10.0,92,0.00,,,0.25,0.000000,,2013-01-09 04:12:00,
2013-01-08 22:22:00,60.0,58.0,-100.00,ESE,109,4.0,10.0,92,0.00,,,0.25,0.000000,,2013-01-09 04:22:00,
2013-01-08 22:32:00,61.0,59.0,-100.00,ESE,105,7.0,13.0,92,0.02,,,0.27,0.000000,,2013-01-09 04:32:00,
2013-01-08 22:52:00,61.0,59.0,-100.00,ESE,105,7.0,13.0,92,0.02,,,0.27,0.000000,,2013-01-09 04:52:00,
2013-01-08 23:03:00,61.0,59.0,-100.00,ESE,105,7.0,13.0,92,0.02,,,0.27,0.000000,,2013-01-09 05:03:00,
2013-01-08 23:12:00,61.0,59.0,-100.00,ESE,105,7.0,13.0,92,0.02,,,0.27,0.000000,,2013-01-09 05:12:00,
2013-01-08 23:22:00,61.0,59.0,-100.00,ESE,105,7.0,13.0,92,0.02,,,0.27,0.000000,,2013-01-09 05:22:00,
2013-01-08 23:32:00,61.0,58.0,-100.00,NNE,29,1.0,12.0,91,0.01,,,0.28,0.000000,,2013-01-09 05:32:00,
2013-01-08 23:53:00,61.0,58.0,-100.00,NNE,29,1.0,12.0,91,0.01,,,0.28,0.000000,,2013-01-09 05:53:00,